Location: Praha
(50.0830°N, 14.4670°E)
Time: 11:37:09
(UTC+02:00)

ISS - Pass Details

Date: 05 May 2025
Orbit: 416 x 419 km, 51.6° (Epoch: 18 May)

Event Time Altitude Azimuth Distance (km) Brightness Sun altitude
Exits shadow 03:48:14 - 284° (WNW) 1,639 -1.0 -13.9°
Reaches altitude 10° 03:48:35 10° 285° (WNW) 1,496 -1.2 -13.9°
Maximum altitude 03:51:57 79° 13° (NNE) 430 -3.7 -13.5°
Drops below altitude 10° 03:55:18 10° 100° (E) 1,494 -0.5 -13.1°
Sets 03:57:24 0° 101° (ESE) 2,357 0.5 -12.9°
